Weather Roundup
Issued by NWS

Home | Current Version | Previous Version | Text Only | Print | Product List | Glossary On
Versions: 1 2 3 4 5 6 7 8 9 10 11 12 13 14 15 16 17 18 19 20 21 22 23 24 25 26 27 28 29 30 31 32 33 34 35 36 37 38 39 40 41 42 43 44 45 46 47 48 49 50
000
NZUS93 KARX 250259
HRRWXR

CURRENT HOURLY OBSERVATIONS ACROSS
MUCH OF THE UPPER MISSISSIPPI VALLEY
NATIONAL WEATHER SERVICE LA CROSSE WI
1000 PM CDT FRI APR 24 2015


...SOUTHEAST MINNESOTA...


CITY           SKY/WX    TMP DP  RH WIND       PRES   REMARKS
ROCHESTER      CLOUDY    42  39  89 E16       29.82R
ROCHESTER/MAYO CLOUDY    42  42  99 E10G21    29.82R
WINONA         NOT AVBL
AUSTIN         CLOUDY    43  39  87 E14       29.78R
ALBERT LEA     CLOUDY    45  41  87 E16       29.76R
DODGE CENTER   CLOUDY    43  41  93 E16       29.79S
PRESTON        CLOUDY    42  38  86 SE16G22   29.81S
OWATONNA       CLOUDY    43  39  87 E17G23    29.78S
FARIBAULT      CLOUDY    45  39  81 E15G22    29.79S
$$

...ELSEWHERE IN MINNESOTA...


CITY           SKY/WX    TMP DP  RH WIND       PRES   REMARKS
MINNEAPOLIS    CLOUDY    44  41  89 E14       29.82S
INTNL FALLS    CLOUDY    40  20  44 E9        29.92R WCI  34
DULUTH         CLOUDY    35  22  58 E13G24    29.91S WCI  26
RED WING       CLOUDY    45  41  87 E14       29.83S
REDWOOD FALLS  CLOUDY    45  41  86 E12G24    29.71S
MANKATO        CLOUDY    45  37  76 E16G23    29.76S
WORTHINGTON    CLOUDY    46  43  87 SE18G26   29.64F
FAIRMONT       CLOUDY    46  21  36 SE18      29.69F
$$

...SOUTHWEST WISCONSIN...


CITY           SKY/WX    TMP DP  RH WIND       PRES   REMARKS
LA CROSSE      LGT RAIN  45  39  79 SE6       29.88R
PRAIRIE DU CHI CLOUDY    44  37  76 E12       29.84S
BOSCOBEL       CLOUDY    44  38  79 NE6       29.88S
LONE ROCK      NOT AVBL
PLATTEVILLE    CLOUDY    43  39  85 E16G22    29.85S
FORT MC COY    CLOUDY    42  37  84 E10G16    29.91R
VIROQUA        CLOUDY    41  39  92 E14       29.86R
WIS DELLS      CLOUDY    40  36  85 E12       29.92R WCI  33
$$

...ELSEWHERE IN WISCONSIN...


CITY           SKY/WX    TMP DP  RH WIND       PRES   REMARKS
MILWAUKEE      CLOUDY    39  33  79 NE10      29.96F WCI  32
MADISON        CLOUDY    40  34  79 E15       29.92S WCI  32
GREEN BAY      CLOUDY    42  21  43 SE5       29.99F
EAU CLAIRE     NOT AVBL
BLACK RVR FLS  RAIN      42  40  95 E5        29.92R
MEDFORD        CLOUDY    46  29  52 SE9       29.91S
WAUSAU         LGT RAIN  41  36  82 E7        29.95R
WIS RAPIDS     LGT RAIN  42  36  79 SE8       29.95S
MARSHFIELD     LGT RAIN  43  31  62 SE14      29.93R
RICE LAKE      CLOUDY    49  28  44 SE9       29.89S
$$

...NORTHEAST IOWA...


CITY           SKY/WX    TMP DP  RH WIND       PRES   REMARKS
DECORAH        CLOUDY    43  39  87 E15G23    29.81S
MASON CITY     CLOUDY    45  41  86 SE14      29.75S
CHARLES CITY   CLOUDY    45  43  93 E15       29.78R
OELWEIN        CLOUDY    45  41  87 E18       29.78R
$$

...ELSEWHERE IN IOWA...


CITY           SKY/WX    TMP DP  RH WIND       PRES   REMARKS
DES MOINES     CLOUDY    51  46  83 E14       29.67S
IOWA CITY      MOCLDY    47  43  86 E13G25    29.76S
FORT DODGE     CLOUDY    46  43  87 E17G24    29.69R
$$

...NORTHERN ILLINOIS...


CITY           SKY/WX    TMP DP  RH WIND       PRES   REMARKS
CHICAGO-OHARE  LGT RAIN  41  35  79 E12       29.89F
CHICAGO-MIDWAY RAIN      44  36  73 E15       29.93F
MOLINE         CLOUDY    49  41  74 E18       29.79F
ROCKFORD       CLOUDY    43  36  76 E13       29.92R
PEORIA         CLOUDY    58  33  39 E8        29.81S
$$

NOTE: "FAIR" INDICATES FEW OR NO CLOUDS BELOW 12,000 FEET WITH NO
SIGNIFICANT WEATHER AND/OR OBSTRUCTIONS TO VISIBILITY. WIND
SPEEDS ARE IN MILES-PER-HOUR.



USA.gov is the U.S. government's official web portal to all federal, state and local government web resources and services.